Location: Lecco
(45.8566°N, 9.3977°E)
Time: 07:43:17
(UTC+02:00)

Altair - Pass Details

Date: 16 August 2020
Orbit: 1501 x 1682 km, 47.2° (Epoch: 25 September)

Event Time Altitude Azimuth Distance (km) Brightness Sun altitude
Rises 04:34:17 0° 261° (W) 4,808 - -17.1°
Reaches altitude 10° 04:37:26 10° 263° (W) 3,798 - -16.7°
Exits shadow 04:38:22 14° 263° (W) 3,501 8.9 -16.5°
Maximum altitude 04:47:05 85° 352° (N) 1,557 7.5 -15.4°
Drops below altitude 10° 04:56:24 10° 82° (E) 3,676 10.5 -14.1°
Sets 04:59:24 0° 83° (E) 4,646 11.1 -13.7°
